Location: Geyikbay?r?
(36.8756°N, 30.4583°E)
Time: 17:14:42
(UTC+00:00)

USA 281 - Pass Details

Date: 05 August 2024
Orbit: 1078 x 1081 km, 106.0° (Epoch: 09 September)

Event Time Altitude Azimuth Distance (km) Brightness Sun altitude
Exits shadow 22:14:21 40° 59° (ENE) 1,538 4.1 -36.4°
Drops below altitude 10° 22:20:21 10° 353° (N) 2,926 6.2 -36.4°
Sets 22:23:01 0° 346° (NNW) 3,885 7.0 -36.3°
